EJA210 KORF-CYYT

Flight info

Callsign EJA210
Flight time 3h 3m
Altitude 39000
Route ZJAAY DCT BLENO Q439 BEEKN Q480 ENE Q822 TIGOR TIGOR5
Aircraft CL60/M-SBDE1E2E3FGHIJ1J4J5J7M3RWXYZ/LB1V1D1

Departure

Time 2026-04-27 12:02
Airport Norfolk International Airport (KORF)

Arrival

Time 2026-04-27 15:06
Airport St. John's International Airport (CYYT)
Time Latitude Longitude Altitude Speed Heading
2026-04-27 11:47 36.88704 -76.20007 25 ft 0 kts 128°
2026-04-27 11:58 36.88703 -76.20005 25 ft 1 kts 127°
2026-04-27 11:58 36.88703 -76.19959 25 ft 7 kts 34°
2026-04-27 11:58 36.88750 -76.19995 26 ft 9 kts 303°
2026-04-27 11:58 36.88797 -76.20069 25 ft 12 kts 319°
2026-04-27 11:59 36.88800 -76.20161 25 ft 13 kts 207°
2026-04-27 11:59 36.88752 -76.20255 25 ft 14 kts 310°
2026-04-27 11:59 36.88820 -76.20345 25 ft 11 kts 309°
2026-04-27 11:59 36.88816 -76.20416 25 ft 10 kts 215°
2026-04-27 12:00 36.88756 -76.20473 24 ft 12 kts 218°
2026-04-27 12:00 36.88678 -76.20548 23 ft 16 kts 218°
2026-04-27 12:00 36.88583 -76.20637 22 ft 9 kts 217°
2026-04-27 12:00 36.88547 -76.20713 22 ft 12 kts 294°
2026-04-27 12:01 36.88594 -76.20793 22 ft 8 kts 308°
2026-04-27 12:01 36.88647 -76.20773 22 ft 10 kts 41°
2026-04-27 12:01 36.88718 -76.20702 23 ft 26 kts 38°
2026-04-27 12:01 36.89069 -76.20357 26 ft 106 kts 36°
2026-04-27 12:02 36.89833 -76.19624 203 ft 161 kts 38°
2026-04-27 12:02 36.90726 -76.18815 1220 ft 162 kts 36°
2026-04-27 12:02 36.91644 -76.18030 2262 ft 171 kts 36°
2026-04-27 12:02 36.92659 -76.17166 3144 ft 186 kts 36°
2026-04-27 12:03 36.93740 -76.16253 3742 ft 191 kts 36°
2026-04-27 12:03 36.94787 -76.15218 3979 ft 192 kts 43°
2026-04-27 12:03 36.95790 -76.14105 4015 ft 204 kts 43°
2026-04-27 12:03 36.96942 -76.12830 4009 ft 232 kts 42°
2026-04-27 12:04 36.98180 -76.11464 4007 ft 237 kts 42°
2026-04-27 12:04 36.99338 -76.10027 4009 ft 239 kts 52°
2026-04-27 12:04 37.00340 -76.08189 4539 ft 267 kts 56°
2026-04-27 12:04 37.01328 -76.06343 6171 ft 264 kts 54°
2026-04-27 12:05 37.02326 -76.04485 7686 ft 264 kts 53°
2026-04-27 12:05 37.03352 -76.02579 8999 ft 269 kts 52°
2026-04-27 12:05 37.04386 -76.00659 10213 ft 274 kts 52°
2026-04-27 12:05 37.05496 -75.98610 10781 ft 303 kts 51°
2026-04-27 12:06 37.06736 -75.96323 11263 ft 331 kts 52°
2026-04-27 12:06 37.08033 -75.93914 12116 ft 344 kts 51°
2026-04-27 12:06 37.09374 -75.91422 13095 ft 351 kts 51°
2026-04-27 12:06 37.10728 -75.88813 14031 ft 361 kts 54°
2026-04-27 12:07 37.11959 -75.86056 14964 ft 368 kts 56°
2026-04-27 12:07 37.13181 -75.83272 15856 ft 374 kts 56°
2026-04-27 12:07 37.14440 -75.80405 16720 ft 381 kts 56°
2026-04-27 12:07 37.15723 -75.77482 17583 ft 386 kts 56°
2026-04-27 12:08 37.17185 -75.74668 18424 ft 383 kts 44°
2026-04-27 12:08 37.19145 -75.72535 19215 ft 378 kts 27°
2026-04-27 12:08 37.21535 -75.71240 19970 ft 375 kts 10°
2026-04-27 12:08 37.24116 -75.70755 20696 ft 376 kts
2026-04-27 12:09 37.26718 -75.70415 21431 ft 381 kts
2026-04-27 12:09 37.29352 -75.70061 22175 ft 384 kts
2026-04-27 12:09 37.32006 -75.69704 22898 ft 387 kts
2026-04-27 12:09 37.34696 -75.69341 23588 ft 390 kts
2026-04-27 12:10 37.37433 -75.68973 24232 ft 394 kts
2026-04-27 12:10 37.40174 -75.68603 24851 ft 398 kts
2026-04-27 12:10 37.42934 -75.68230 25465 ft 402 kts
2026-04-27 12:10 37.45702 -75.67857 26062 ft 405 kts
2026-04-27 12:11 37.48498 -75.67479 26606 ft 409 kts
2026-04-27 12:11 37.51352 -75.67093 27151 ft 412 kts
2026-04-27 12:11 37.54188 -75.66708 27680 ft 415 kts
2026-04-27 12:11 37.57081 -75.66316 28183 ft 417 kts
2026-04-27 12:12 37.59951 -75.65927 28679 ft 419 kts
2026-04-27 12:12 37.62872 -75.65530 29126 ft 422 kts
2026-04-27 12:12 37.65781 -75.65136 29529 ft 425 kts
2026-04-27 12:12 37.68711 -75.64738 29958 ft 426 kts
2026-04-27 12:13 37.71683 -75.64333 30501 ft 424 kts
2026-04-27 12:13 37.74606 -75.63934 31084 ft 421 kts
2026-04-27 12:13 37.77496 -75.63539 31644 ft 419 kts
2026-04-27 12:13 37.80356 -75.63128 32201 ft 416 kts
2026-04-27 12:14 37.83160 -75.62338 32749 ft 417 kts 13°
2026-04-27 12:14 37.85868 -75.60957 33243 ft 420 kts 22°
2026-04-27 12:14 37.88379 -75.59029 33656 ft 423 kts 29°
2026-04-27 12:14 37.90799 -75.56913 34046 ft 423 kts 29°
2026-04-27 12:15 37.93218 -75.54800 34408 ft 423 kts 29°
2026-04-27 12:15 37.95623 -75.52701 34715 ft 423 kts 29°
2026-04-27 12:15 37.98033 -75.50597 35009 ft 422 kts 29°
2026-04-27 12:15 38.00458 -75.48476 35302 ft 421 kts 29°
2026-04-27 12:16 38.02848 -75.46386 35579 ft 421 kts 29°
2026-04-27 12:16 38.05238 -75.44305 35855 ft 419 kts 28°
2026-04-27 12:16 38.07685 -75.42271 36118 ft 418 kts 27°
2026-04-27 12:16 38.10123 -75.40263 36352 ft 418 kts 27°
2026-04-27 12:17 38.12562 -75.38254 36644 ft 418 kts 27°
2026-04-27 12:17 38.15006 -75.36237 36975 ft 418 kts 27°
2026-04-27 12:17 38.17413 -75.34251 37286 ft 418 kts 27°
2026-04-27 12:17 38.19861 -75.32228 37585 ft 417 kts 27°
2026-04-27 12:18 38.22276 -75.30231 37863 ft 417 kts 27°
2026-04-27 12:18 38.24715 -75.28213 38073 ft 417 kts 27°
2026-04-27 12:18 38.27121 -75.26221 38264 ft 417 kts 27°
2026-04-27 12:18 38.29563 -75.24197 38478 ft 417 kts 27°
2026-04-27 12:19 38.31979 -75.22193 38670 ft 417 kts 27°
2026-04-27 12:19 38.34424 -75.20164 38849 ft 417 kts 27°
2026-04-27 12:19 38.36836 -75.18161 38992 ft 418 kts 27°
2026-04-27 12:19 38.39285 -75.16125 39150 ft 418 kts 27°
2026-04-27 12:20 38.41714 -75.14105 39267 ft 419 kts 27°
2026-04-27 12:20 38.46600 -75.10037 39264 ft 426 kts 27°
2026-04-27 12:21 38.51593 -75.05872 39271 ft 430 kts 27°
2026-04-27 12:21 38.56599 -75.01688 39255 ft 432 kts 27°
2026-04-27 12:22 38.61650 -74.97457 39259 ft 432 kts 27°
2026-04-27 12:22 38.66658 -74.93256 39258 ft 432 kts 27°
2026-04-27 12:23 38.71643 -74.89068 39253 ft 431 kts 27°
2026-04-27 12:23 38.76635 -74.84866 39261 ft 430 kts 27°
2026-04-27 12:24 38.81642 -74.80645 39254 ft 430 kts 27°
2026-04-27 12:24 38.86606 -74.76454 39260 ft 430 kts 27°
2026-04-27 12:25 38.91614 -74.72218 39266 ft 430 kts 27°
2026-04-27 12:25 38.96597 -74.67996 39260 ft 430 kts 27°
2026-04-27 12:26 39.01589 -74.63760 39262 ft 430 kts 27°
2026-04-27 12:26 39.06559 -74.59534 39261 ft 431 kts 27°
2026-04-27 12:27 39.11548 -74.55286 39257 ft 431 kts 27°
2026-04-27 12:27 39.16532 -74.51034 39259 ft 430 kts 27°
2026-04-27 12:28 39.21497 -74.46791 39253 ft 429 kts 27°
2026-04-27 12:28 39.26459 -74.42543 39266 ft 429 kts 27°
2026-04-27 12:29 39.31445 -74.38268 39258 ft 429 kts 28°
2026-04-27 12:29 39.36389 -74.34022 39249 ft 429 kts 28°
2026-04-27 12:30 39.41342 -74.29759 39260 ft 428 kts 28°
2026-04-27 12:30 39.46270 -74.25513 39257 ft 429 kts 28°
2026-04-27 12:31 39.51247 -74.21216 39253 ft 429 kts 28°
2026-04-27 12:31 39.56191 -74.16940 39259 ft 429 kts 28°
2026-04-27 12:32 39.61148 -74.12646 39247 ft 429 kts 28°
2026-04-27 12:32 39.66099 -74.08347 39253 ft 429 kts 28°
2026-04-27 12:33 39.71034 -74.04057 39245 ft 429 kts 28°
2026-04-27 12:33 39.75974 -73.99754 39256 ft 428 kts 29°
2026-04-27 12:34 39.80920 -73.95439 39257 ft 428 kts 29°
2026-04-27 12:34 39.85864 -73.91119 39254 ft 429 kts 29°
2026-04-27 12:35 39.90799 -73.86797 39250 ft 429 kts 29°
2026-04-27 12:35 39.95740 -73.82465 39253 ft 430 kts 29°
2026-04-27 12:36 40.00682 -73.78122 39253 ft 431 kts 29°
2026-04-27 12:36 40.05658 -73.73743 39258 ft 432 kts 29°
2026-04-27 12:37 40.10636 -73.69353 39272 ft 433 kts 29°
2026-04-27 12:37 40.15631 -73.64940 39262 ft 433 kts 29°
2026-04-27 12:38 40.20570 -73.60568 39261 ft 433 kts 29°
2026-04-27 12:38 40.25580 -73.56126 39263 ft 433 kts 29°
2026-04-27 12:39 40.30544 -73.51718 39262 ft 434 kts 29°
2026-04-27 12:39 40.35535 -73.47278 39265 ft 435 kts 29°
2026-04-27 12:40 40.40539 -73.42817 39274 ft 435 kts 29°
2026-04-27 12:40 40.45513 -73.38374 39268 ft 436 kts 29°
2026-04-27 12:41 40.50531 -73.33885 39266 ft 435 kts 30°
2026-04-27 12:41 40.55518 -73.29415 39273 ft 437 kts 30°
2026-04-27 12:42 40.60529 -73.24915 39276 ft 438 kts 30°
2026-04-27 12:42 40.65550 -73.20398 39266 ft 439 kts 30°
2026-04-27 12:43 40.70599 -73.15847 39261 ft 440 kts 30°
2026-04-27 12:43 40.75641 -73.11295 39276 ft 440 kts 30°
2026-04-27 12:44 40.80660 -73.06754 39271 ft 442 kts 30°
2026-04-27 12:44 40.85731 -73.02157 39265 ft 443 kts 30°
2026-04-27 12:45 40.90776 -72.97575 39278 ft 442 kts 31°
2026-04-27 12:45 40.95832 -72.92974 39280 ft 442 kts 31°
2026-04-27 12:46 41.00919 -72.88337 39271 ft 443 kts 31°
2026-04-27 12:46 41.05954 -72.83738 39282 ft 444 kts 31°
2026-04-27 12:47 41.11032 -72.79092 39268 ft 444 kts 31°
2026-04-27 12:47 41.16117 -72.74429 39280 ft 444 kts 31°
2026-04-27 12:48 41.21164 -72.69794 39276 ft 445 kts 31°
2026-04-27 12:48 41.26255 -72.65108 39278 ft 444 kts 31°
2026-04-27 12:49 41.31295 -72.60460 39277 ft 445 kts 31°
2026-04-27 12:49 41.36377 -72.55765 39268 ft 445 kts 31°
2026-04-27 12:50 41.41471 -72.51050 39273 ft 446 kts 31°
2026-04-27 12:50 41.46525 -72.46362 39270 ft 446 kts 31°
2026-04-27 12:51 41.51618 -72.41629 39274 ft 447 kts 31°
2026-04-27 12:51 41.56699 -72.36898 39271 ft 447 kts 32°
2026-04-27 12:52 41.61813 -72.32127 39266 ft 447 kts 32°
2026-04-27 12:52 41.66869 -72.27400 39272 ft 447 kts 32°
2026-04-27 12:53 41.74491 -72.20257 39274 ft 447 kts 32°
2026-04-27 12:53 41.79580 -72.15476 39273 ft 447 kts 32°
2026-04-27 12:54 41.84668 -72.10687 39269 ft 448 kts 32°
2026-04-27 12:54 41.89769 -72.05875 39273 ft 449 kts 32°
2026-04-27 12:55 41.94869 -72.01057 39273 ft 449 kts 32°
2026-04-27 12:55 41.99955 -71.96240 39276 ft 449 kts 32°
2026-04-27 12:56 42.05038 -71.91417 39283 ft 449 kts 33°
2026-04-27 12:56 42.10122 -71.86584 39275 ft 449 kts 33°
2026-04-27 12:57 42.15219 -71.81728 39281 ft 449 kts 33°
2026-04-27 12:57 42.20276 -71.76901 39273 ft 448 kts 33°
2026-04-27 12:58 42.25372 -71.72025 39280 ft 448 kts 32°
2026-04-27 12:58 42.30416 -71.67192 39282 ft 447 kts 33°
2026-04-27 12:59 42.35475 -71.62333 39287 ft 447 kts 33°
2026-04-27 12:59 42.40545 -71.57454 39283 ft 448 kts 33°
2026-04-27 13:00 42.45576 -71.52604 39289 ft 448 kts 33°
2026-04-27 13:00 42.50659 -71.47692 39290 ft 448 kts 33°
2026-04-27 13:01 42.55714 -71.42798 39298 ft 447 kts 33°
2026-04-27 13:01 42.60725 -71.37888 39296 ft 448 kts 35°
2026-04-27 13:02 42.65150 -71.31882 39300 ft 453 kts 50°
2026-04-27 13:02 42.68490 -71.24676 39300 ft 456 kts 58°
2026-04-27 13:03 42.71650 -71.17191 39306 ft 456 kts 58°
2026-04-27 13:03 42.74782 -71.09762 39305 ft 456 kts 58°
2026-04-27 13:04 42.77926 -71.02290 39302 ft 456 kts 58°
2026-04-27 13:04 42.81059 -70.94826 39302 ft 456 kts 58°
2026-04-27 13:05 42.84196 -70.87335 39297 ft 456 kts 58°
2026-04-27 13:05 42.87328 -70.79839 39300 ft 456 kts 58°
2026-04-27 13:06 42.90458 -70.72328 39296 ft 456 kts 58°
2026-04-27 13:06 42.93560 -70.64867 39285 ft 456 kts 58°
2026-04-27 13:07 42.96691 -70.57317 39280 ft 457 kts 58°
2026-04-27 13:07 42.99800 -70.49802 39287 ft 457 kts 58°
2026-04-27 13:08 43.02899 -70.42289 39294 ft 457 kts 58°
2026-04-27 13:08 43.06000 -70.34753 39295 ft 456 kts 59°
2026-04-27 13:09 43.09106 -70.27186 39293 ft 456 kts 59°
2026-04-27 13:09 43.12207 -70.19614 39293 ft 457 kts 59°
2026-04-27 13:10 43.15284 -70.12077 39287 ft 457 kts 59°
2026-04-27 13:10 43.18376 -70.04486 39291 ft 457 kts 59°
2026-04-27 13:11 43.21449 -69.96922 39286 ft 457 kts 59°
2026-04-27 13:11 43.24530 -69.89314 39295 ft 457 kts 59°
2026-04-27 13:12 43.27605 -69.81707 39294 ft 458 kts 59°
2026-04-27 13:12 43.30683 -69.74068 39296 ft 458 kts 59°
2026-04-27 13:13 43.33751 -69.66434 39291 ft 457 kts 59°
2026-04-27 13:13 43.36797 -69.58836 39292 ft 457 kts 59°
2026-04-27 13:14 43.39851 -69.51196 39295 ft 457 kts 59°
2026-04-27 13:14 43.42903 -69.43543 39299 ft 457 kts 59°
2026-04-27 13:15 43.45939 -69.35908 39302 ft 457 kts 59°
2026-04-27 13:15 43.48976 -69.28252 39302 ft 458 kts 60°
2026-04-27 13:16 43.52002 -69.20600 39299 ft 458 kts 60°
2026-04-27 13:16 43.55027 -69.12930 39303 ft 457 kts 60°
2026-04-27 13:17 43.58066 -69.05206 39298 ft 457 kts 60°
2026-04-27 13:17 43.61081 -68.97523 39298 ft 457 kts 60°
2026-04-27 13:18 43.64093 -68.89822 39290 ft 457 kts 60°
2026-04-27 13:18 43.67090 -68.82144 39289 ft 458 kts 60°
2026-04-27 13:19 43.70098 -68.74412 39296 ft 458 kts 60°
2026-04-27 13:19 43.73093 -68.66695 39295 ft 458 kts 60°
2026-04-27 13:20 43.76085 -68.58966 39292 ft 458 kts 60°
2026-04-27 13:20 43.79077 -68.51211 39300 ft 459 kts 60°
2026-04-27 13:21 43.82077 -68.43419 39302 ft 459 kts 60°
2026-04-27 13:21 43.85067 -68.35629 39302 ft 459 kts 60°
2026-04-27 13:22 43.88037 -68.27869 39312 ft 459 kts 61°
2026-04-27 13:22 43.91014 -68.20068 39318 ft 459 kts 61°
2026-04-27 13:23 43.93985 -68.12265 39316 ft 458 kts 61°
2026-04-27 13:23 43.96930 -68.04506 39316 ft 459 kts 61°
2026-04-27 13:24 43.99889 -67.96690 39317 ft 460 kts 61°
2026-04-27 13:24 44.02856 -67.88828 39304 ft 461 kts 61°
2026-04-27 13:25 44.05819 -67.80956 39306 ft 460 kts 61°
2026-04-27 13:25 44.08771 -67.73091 39306 ft 460 kts 62°
2026-04-27 13:26 44.11709 -67.65241 39304 ft 461 kts 62°
2026-04-27 13:26 44.14652 -67.57354 39309 ft 461 kts 62°
2026-04-27 13:27 44.17590 -67.49460 39299 ft 462 kts 62°
2026-04-27 13:27 44.20544 -67.41499 39298 ft 463 kts 62°
2026-04-27 13:28 44.23479 -67.33566 39306 ft 463 kts 63°
2026-04-27 13:28 44.26409 -67.25627 39305 ft 463 kts 63°
2026-04-27 13:29 44.29359 -67.17608 39305 ft 464 kts 63°
2026-04-27 13:29 44.32282 -67.09639 39308 ft 463 kts 63°
2026-04-27 13:30 44.35204 -67.01651 39309 ft 463 kts 63°
2026-04-27 13:30 44.38102 -66.93706 39318 ft 462 kts 63°
2026-04-27 13:31 44.41013 -66.85702 39313 ft 462 kts 63°
2026-04-27 13:31 44.43918 -66.77688 39317 ft 463 kts 63°
2026-04-27 13:32 44.46817 -66.69669 39325 ft 464 kts 63°
2026-04-27 13:32 44.49694 -66.61688 39324 ft 464 kts 63°
2026-04-27 13:33 44.52586 -66.53643 39321 ft 464 kts 63°
2026-04-27 13:33 44.55476 -66.45579 39322 ft 464 kts 63°
2026-04-27 13:34 44.58357 -66.37517 39323 ft 464 kts 63°
2026-04-27 13:34 44.61239 -66.29428 39331 ft 464 kts 64°
2026-04-27 13:35 44.64095 -66.21387 39326 ft 464 kts 64°
2026-04-27 13:35 44.66953 -66.13316 39328 ft 464 kts 64°
2026-04-27 13:36 44.69814 -66.05214 39326 ft 464 kts 64°
2026-04-27 13:36 44.72660 -65.97128 39320 ft 465 kts 64°
2026-04-27 13:37 44.75512 -65.89002 39310 ft 465 kts 64°
2026-04-27 13:37 44.78361 -65.80857 39323 ft 464 kts 64°
2026-04-27 13:38 44.81194 -65.72737 39320 ft 463 kts 64°
2026-04-27 13:38 44.83999 -65.64672 39313 ft 462 kts 64°
2026-04-27 13:39 44.86821 -65.56535 39320 ft 463 kts 64°
2026-04-27 13:39 44.89639 -65.48391 39305 ft 464 kts 64°
2026-04-27 13:40 44.92465 -65.40245 39314 ft 464 kts 64°
2026-04-27 13:40 44.95277 -65.32115 39318 ft 464 kts 65°
2026-04-27 13:41 44.98086 -65.23971 39324 ft 464 kts 65°
2026-04-27 13:41 45.00903 -65.15778 39328 ft 464 kts 65°
2026-04-27 13:42 45.03693 -65.07636 39314 ft 464 kts 65°
2026-04-27 13:42 45.06488 -64.99459 39313 ft 464 kts 65°
2026-04-27 13:43 45.09273 -64.91282 39317 ft 463 kts 65°
2026-04-27 13:43 45.12063 -64.83066 39328 ft 463 kts 65°
2026-04-27 13:44 45.14832 -64.74887 39329 ft 463 kts 65°
2026-04-27 13:44 45.17607 -64.66663 39319 ft 464 kts 65°
2026-04-27 13:45 45.20362 -64.58476 39324 ft 464 kts 66°
2026-04-27 13:45 45.23117 -64.50260 39328 ft 464 kts 66°
2026-04-27 13:46 45.25885 -64.41981 39328 ft 464 kts 66°
2026-04-27 13:46 45.28632 -64.33740 39332 ft 464 kts 67°
2026-04-27 13:47 45.31368 -64.25505 39327 ft 463 kts 66°
2026-04-27 13:47 45.34100 -64.17258 39323 ft 463 kts 67°
2026-04-27 13:48 45.36820 -64.09020 39326 ft 463 kts 67°
2026-04-27 13:48 45.39548 -64.00731 39318 ft 463 kts 67°
2026-04-27 13:49 45.42250 -63.92493 39309 ft 463 kts 67°
2026-04-27 13:49 45.44958 -63.84212 39321 ft 463 kts 67°
2026-04-27 13:50 45.47671 -63.75893 39321 ft 463 kts 67°
2026-04-27 13:50 45.50354 -63.67634 39319 ft 463 kts 67°
2026-04-27 13:51 45.53030 -63.59376 39323 ft 462 kts 67°
2026-04-27 13:51 45.55711 -63.51071 39321 ft 461 kts 67°
2026-04-27 13:52 45.58389 -63.42752 39317 ft 461 kts 67°
2026-04-27 13:52 45.61036 -63.34501 39335 ft 461 kts 68°
2026-04-27 13:53 45.65025 -63.22018 39350 ft 460 kts 68°
2026-04-27 13:54 45.67664 -63.13725 39355 ft 460 kts 68°
2026-04-27 13:54 45.70279 -63.05482 39352 ft 459 kts 68°
2026-04-27 13:55 45.72921 -62.97126 39349 ft 459 kts 69°
2026-04-27 13:55 45.75534 -62.88835 39357 ft 459 kts 69°
2026-04-27 13:56 45.78134 -62.80561 39353 ft 458 kts 69°
2026-04-27 13:56 45.80729 -62.72276 39347 ft 456 kts 69°
2026-04-27 13:57 45.83310 -62.64010 39359 ft 455 kts 69°
2026-04-27 13:57 45.85871 -62.55776 39364 ft 455 kts 69°
2026-04-27 13:58 45.88425 -62.47543 39365 ft 454 kts 69°
2026-04-27 13:58 45.90985 -62.39262 39361 ft 454 kts 69°
2026-04-27 13:59 45.93530 -62.31002 39342 ft 453 kts 70°
2026-04-27 13:59 45.96068 -62.22738 39357 ft 452 kts 70°
2026-04-27 14:00 45.98592 -62.14494 39370 ft 451 kts 70°
2026-04-27 14:00 46.01095 -62.06294 39369 ft 449 kts 70°
2026-04-27 14:01 46.03576 -61.98136 39374 ft 448 kts 70°
2026-04-27 14:01 46.06056 -61.89957 39339 ft 448 kts 70°
2026-04-27 14:02 46.08530 -61.81768 39346 ft 448 kts 70°
2026-04-27 14:02 46.11004 -61.73555 39345 ft 448 kts 70°
2026-04-27 14:03 46.13467 -61.65352 39349 ft 447 kts 70°
2026-04-27 14:03 46.15921 -61.57150 39348 ft 446 kts 70°
2026-04-27 14:04 46.18367 -61.48950 39356 ft 446 kts 70°
2026-04-27 14:04 46.20801 -61.40762 39342 ft 446 kts 71°
2026-04-27 14:05 46.23243 -61.32521 39348 ft 447 kts 71°
2026-04-27 14:05 46.25664 -61.24321 39331 ft 446 kts 71°
2026-04-27 14:06 46.28077 -61.16125 39319 ft 446 kts 71°
2026-04-27 14:06 46.30500 -61.07866 39317 ft 445 kts 71°
2026-04-27 14:07 46.32896 -60.99672 39293 ft 445 kts 71°
2026-04-27 14:07 46.35290 -60.91456 39307 ft 445 kts 71°
2026-04-27 14:08 46.37689 -60.83197 39305 ft 445 kts 71°
2026-04-27 14:08 46.40070 -60.74975 39307 ft 445 kts 71°
2026-04-27 14:09 46.42443 -60.66750 39309 ft 445 kts 71°
2026-04-27 14:09 46.44829 -60.58452 39311 ft 445 kts 71°
2026-04-27 14:10 46.47195 -60.50198 39312 ft 446 kts 71°
2026-04-27 14:10 46.49548 -60.41958 39325 ft 446 kts 71°
2026-04-27 14:11 46.51911 -60.33654 39341 ft 446 kts 71°
2026-04-27 14:11 46.54274 -60.25327 39360 ft 446 kts 71°
2026-04-27 14:12 46.56618 -60.17038 39359 ft 446 kts 71°
2026-04-27 14:12 46.58960 -60.08725 39359 ft 446 kts 71°
2026-04-27 14:13 46.61302 -60.00382 39359 ft 447 kts 71°
2026-04-27 14:13 46.63625 -59.92082 39357 ft 448 kts 71°
2026-04-27 14:14 46.65957 -59.83716 39359 ft 448 kts 71°
2026-04-27 14:14 46.68298 -59.75292 39492 ft 448 kts 71°
2026-04-27 14:14 46.69447 -59.71149 39384 ft 449 kts 71°
2026-04-27 14:15 46.70618 -59.66913 39363 ft 448 kts 71°
2026-04-27 14:15 46.72928 -59.58546 39357 ft 447 kts 71°
2026-04-27 14:16 46.75230 -59.50172 39352 ft 448 kts 71°
2026-04-27 14:16 46.77538 -59.41749 39353 ft 449 kts 71°
2026-04-27 14:17 46.79845 -59.33302 39347 ft 450 kts 71°
2026-04-27 14:17 46.82142 -59.24860 39347 ft 450 kts 71°
2026-04-27 14:18 46.84432 -59.16414 39347 ft 450 kts 71°
2026-04-27 14:18 46.86721 -59.07941 39349 ft 451 kts 71°
2026-04-27 14:19 46.89018 -58.99407 39356 ft 451 kts 71°
2026-04-27 14:19 46.91291 -58.90932 39360 ft 451 kts 71°
2026-04-27 14:20 46.93574 -58.82388 39360 ft 452 kts 71°
2026-04-27 14:20 46.95838 -58.73884 39360 ft 453 kts 71°
2026-04-27 14:21 46.98127 -58.65257 39361 ft 454 kts 71°
2026-04-27 14:21 47.00155 -58.56607 39364 ft 451 kts 79°
2026-04-27 14:22 47.01204 -58.47578 39358 ft 450 kts 83°
2026-04-27 14:22 47.02200 -58.38589 39357 ft 451 kts 82°
2026-04-27 14:23 47.03198 -58.29534 39360 ft 452 kts 83°
2026-04-27 14:23 47.04195 -58.20434 39360 ft 453 kts 83°
2026-04-27 14:24 47.05181 -58.11379 39357 ft 453 kts 83°
2026-04-27 14:24 47.06167 -58.02267 39358 ft 453 kts 83°
2026-04-27 14:25 47.07143 -57.93181 39357 ft 453 kts 83°
2026-04-27 14:25 47.08114 -57.84085 39365 ft 453 kts 83°
2026-04-27 14:26 47.09079 -57.74968 39356 ft 455 kts 82°
2026-04-27 14:26 47.10039 -57.65828 39359 ft 455 kts 82°
2026-04-27 14:27 47.10989 -57.56724 39359 ft 456 kts 82°
2026-04-27 14:27 47.11937 -57.47555 39350 ft 455 kts 82°
2026-04-27 14:28 47.12875 -57.38421 39341 ft 456 kts 82°
2026-04-27 14:28 47.13816 -57.29182 39343 ft 457 kts 83°
2026-04-27 14:29 47.14742 -57.20019 39342 ft 457 kts 83°
2026-04-27 14:29 47.15665 -57.10804 39334 ft 457 kts 82°
2026-04-27 14:30 47.16576 -57.01626 39332 ft 457 kts 82°
2026-04-27 14:30 47.17478 -56.92475 39343 ft 457 kts 82°
2026-04-27 14:31 47.18382 -56.83226 39330 ft 458 kts 82°
2026-04-27 14:31 47.19273 -56.74028 39325 ft 458 kts 82°
2026-04-27 14:32 47.20159 -56.64804 39334 ft 458 kts 82°
2026-04-27 14:32 47.21044 -56.55508 39331 ft 458 kts 81°
2026-04-27 14:33 47.21915 -56.46277 39325 ft 458 kts 82°
2026-04-27 14:33 47.22773 -56.37103 39322 ft 457 kts 81°
2026-04-27 14:34 47.23629 -56.27874 39331 ft 457 kts 82°
2026-04-27 14:34 47.24478 -56.18630 39325 ft 457 kts 82°
2026-04-27 14:35 47.25316 -56.09430 39325 ft 456 kts 82°
2026-04-27 14:35 47.26150 -56.00179 39319 ft 455 kts 82°
2026-04-27 14:36 47.26969 -55.91029 39315 ft 454 kts 82°
2026-04-27 14:36 47.27784 -55.81831 39316 ft 454 kts 82°
2026-04-27 14:37 47.28587 -55.72674 39321 ft 454 kts 81°
2026-04-27 14:37 47.29391 -55.63425 39319 ft 455 kts 81°
2026-04-27 14:38 47.30180 -55.54266 39319 ft 456 kts 81°
2026-04-27 14:38 47.30971 -55.44998 38800 ft 457 kts 81°
2026-04-27 14:38 47.31360 -55.40389 38245 ft 451 kts 81°
2026-04-27 14:39 47.31741 -55.35865 37694 ft 448 kts 81°
2026-04-27 14:39 47.32120 -55.31343 37141 ft 446 kts 81°
2026-04-27 14:39 47.32499 -55.26806 36549 ft 445 kts 81°
2026-04-27 14:39 47.32873 -55.22301 35965 ft 445 kts 81°
2026-04-27 14:40 47.33246 -55.17783 35375 ft 446 kts 81°
2026-04-27 14:40 47.33615 -55.13304 34788 ft 446 kts 81°
2026-04-27 14:40 47.33988 -55.08747 34209 ft 447 kts 81°
2026-04-27 14:40 47.34357 -55.04218 33601 ft 448 kts 81°
2026-04-27 14:41 47.34723 -54.99702 33011 ft 449 kts 81°
2026-04-27 14:41 47.35088 -54.95166 32419 ft 450 kts 81°
2026-04-27 14:41 47.35458 -54.90556 31815 ft 450 kts 81°
2026-04-27 14:41 47.35822 -54.86002 31222 ft 451 kts 80°
2026-04-27 14:42 47.36184 -54.81435 30628 ft 451 kts 80°
2026-04-27 14:42 47.36546 -54.76851 30033 ft 452 kts 80°
2026-04-27 14:42 47.36908 -54.72249 29434 ft 453 kts 80°
2026-04-27 14:42 47.37265 -54.67683 28838 ft 451 kts 79°
2026-04-27 14:43 47.37617 -54.63148 28250 ft 446 kts 79°
2026-04-27 14:43 47.37966 -54.58621 27657 ft 442 kts 79°
2026-04-27 14:43 47.38306 -54.54195 27080 ft 438 kts 79°
2026-04-27 14:43 47.38646 -54.49741 26502 ft 435 kts 79°
2026-04-27 14:44 47.38979 -54.45363 25929 ft 431 kts 79°
2026-04-27 14:44 47.39310 -54.40993 25358 ft 428 kts 78°
2026-04-27 14:44 47.39635 -54.36675 24806 ft 424 kts 78°
2026-04-27 14:44 47.39955 -54.32407 24245 ft 422 kts 79°
2026-04-27 14:45 47.40275 -54.28117 23680 ft 418 kts 79°
2026-04-27 14:45 47.40587 -54.23907 23131 ft 414 kts 79°
2026-04-27 14:45 47.40897 -54.19705 22583 ft 410 kts 78°
2026-04-27 14:45 47.41202 -54.15552 22045 ft 407 kts 78°
2026-04-27 14:46 47.41523 -54.11446 21509 ft 401 kts 76°
2026-04-27 14:46 47.41941 -54.07443 20967 ft 397 kts 75°
2026-04-27 14:46 47.42370 -54.03428 20428 ft 392 kts 75°
2026-04-27 14:46 47.42786 -53.99509 19905 ft 389 kts 75°
2026-04-27 14:47 47.43200 -53.95611 19399 ft 386 kts 75°
2026-04-27 14:47 47.43608 -53.91745 18889 ft 382 kts 75°
2026-04-27 14:47 47.44018 -53.87860 18377 ft 379 kts 75°
2026-04-27 14:47 47.44416 -53.84070 17887 ft 376 kts 75°
2026-04-27 14:48 47.44817 -53.80252 17367 ft 374 kts 75°
2026-04-27 14:48 47.45598 -53.72767 16198 ft 367 kts 75°
2026-04-27 14:48 47.45976 -53.69112 15705 ft 364 kts 75°
2026-04-27 14:49 47.46356 -53.65450 15216 ft 361 kts 75°
2026-04-27 14:49 47.46736 -53.61771 14732 ft 358 kts 76°
2026-04-27 14:49 47.47104 -53.58192 14254 ft 354 kts 76°
2026-04-27 14:49 47.47467 -53.54640 13806 ft 348 kts 76°
2026-04-27 14:50 47.47820 -53.51174 13359 ft 339 kts 75°
2026-04-27 14:50 47.48165 -53.47781 12921 ft 331 kts 75°
2026-04-27 14:50 47.48500 -53.44474 12467 ft 322 kts 75°
2026-04-27 14:50 47.48826 -53.41236 12056 ft 314 kts 75°
2026-04-27 14:51 47.49141 -53.38109 11644 ft 306 kts 74°
2026-04-27 14:51 47.49450 -53.35042 11237 ft 300 kts 74°
2026-04-27 14:51 47.49752 -53.32032 10848 ft 293 kts 75°
2026-04-27 14:51 47.50046 -53.29105 10460 ft 288 kts 74°
2026-04-27 14:52 47.50333 -53.26233 10092 ft 282 kts 74°
2026-04-27 14:52 47.50616 -53.23397 9718 ft 277 kts 74°
2026-04-27 14:52 47.50893 -53.20619 9357 ft 272 kts 74°
2026-04-27 14:52 47.51164 -53.17897 9002 ft 269 kts 74°
2026-04-27 14:53 47.51438 -53.15145 8641 ft 268 kts 74°
2026-04-27 14:53 47.51707 -53.12443 8284 ft 267 kts 74°
2026-04-27 14:53 47.51972 -53.09763 7947 ft 265 kts 74°
2026-04-27 14:53 47.52238 -53.07070 7586 ft 264 kts 74°
2026-04-27 14:54 47.52502 -53.04386 7238 ft 262 kts 73°
2026-04-27 14:54 47.52760 -53.01732 6889 ft 259 kts 75°
2026-04-27 14:54 47.52928 -52.99129 6557 ft 256 kts 77°
2026-04-27 14:54 47.53059 -52.96505 6205 ft 251 kts 77°
2026-04-27 14:55 47.53185 -52.93975 5875 ft 245 kts 77°
2026-04-27 14:55 47.53307 -52.91517 5555 ft 240 kts 77°
2026-04-27 14:55 47.53428 -52.89071 5235 ft 234 kts 77°
2026-04-27 14:55 47.53544 -52.86720 4939 ft 228 kts 77°
2026-04-27 14:56 47.53658 -52.84401 4687 ft 220 kts 77°
2026-04-27 14:56 47.53709 -52.82260 4780 ft 204 kts 85°
2026-04-27 14:56 47.53342 -52.80139 4615 ft 223 kts 107°
2026-04-27 14:56 47.52361 -52.78325 4515 ft 225 kts 131°
2026-04-27 14:57 47.51184 -52.76837 4379 ft 220 kts 131°
2026-04-27 14:57 47.50073 -52.75426 4290 ft 208 kts 131°
2026-04-27 14:57 47.48962 -52.74005 4160 ft 209 kts 131°
2026-04-27 14:57 47.47887 -52.72633 4065 ft 206 kts 130°
2026-04-27 14:58 47.46790 -52.71228 3936 ft 206 kts 130°
2026-04-27 14:58 47.45712 -52.69852 3848 ft 204 kts 130°
2026-04-27 14:58 47.44644 -52.68467 3755 ft 202 kts 127°
2026-04-27 14:58 47.43998 -52.66798 3747 ft 182 kts 90°
2026-04-27 14:59 47.44116 -52.65052 3537 ft 164 kts 58°
2026-04-27 14:59 47.44735 -52.63741 3304 ft 154 kts 42°
2026-04-27 14:59 47.45419 -52.62535 3067 ft 154 kts 44°
2026-04-27 14:59 47.46091 -52.61305 2981 ft 152 kts 44°
2026-04-27 15:00 47.46751 -52.60088 2976 ft 152 kts 44°
2026-04-27 15:00 47.47409 -52.58872 2981 ft 152 kts 44°
2026-04-27 15:00 47.48098 -52.57716 2981 ft 149 kts 32°
2026-04-27 15:00 47.49081 -52.57444 2866 ft 151 kts 347°
2026-04-27 15:01 47.49941 -52.58400 2727 ft 161 kts 322°
2026-04-27 15:01 47.50703 -52.59633 2595 ft 159 kts 326°
2026-04-27 15:01 47.51530 -52.60668 2485 ft 148 kts 329°
2026-04-27 15:01 47.52261 -52.61594 2484 ft 139 kts 328°
2026-04-27 15:02 47.52993 -52.62535 2480 ft 138 kts 328°
2026-04-27 15:02 47.53713 -52.63479 2485 ft 139 kts 327°
2026-04-27 15:02 47.54435 -52.64431 2371 ft 137 kts 327°
2026-04-27 15:02 47.55105 -52.65329 2062 ft 127 kts 327°
2026-04-27 15:03 47.55728 -52.66159 1881 ft 115 kts 328°
2026-04-27 15:03 47.56309 -52.66927 1720 ft 110 kts 330°
2026-04-27 15:03 47.56868 -52.67664 1558 ft 107 kts 329°
2026-04-27 15:03 47.57428 -52.68416 1432 ft 107 kts 329°
2026-04-27 15:04 47.57956 -52.69193 1381 ft 107 kts 327°
2026-04-27 15:04 47.58521 -52.69917 1173 ft 106 kts 329°
2026-04-27 15:04 47.59071 -52.70648 1087 ft 108 kts 328°
2026-04-27 15:04 47.59676 -52.71444 1032 ft 121 kts 328°
2026-04-27 15:05 47.60261 -52.72184 839 ft 110 kts 329°
2026-04-27 15:05 47.60836 -52.72946 602 ft 108 kts 329°
2026-04-27 15:05 47.61356 -52.73621 434 ft 87 kts 323°
2026-04-27 15:05 47.61760 -52.74104 431 ft 64 kts 322°
2026-04-27 15:06 47.62036 -52.74449 439 ft 39 kts 320°
2026-04-27 15:06 47.62229 -52.74703 442 ft 35 kts 317°
2026-04-27 15:06 47.62354 -52.74863 444 ft 21 kts 319°
2026-04-27 15:06 47.62441 -52.74971 446 ft 7 kts 344°
2026-04-27 15:07 47.62473 -52.74896 444 ft 12 kts 84°
2026-04-27 15:07 47.62476 -52.74749 440 ft 15 kts 92°
2026-04-27 15:07 47.62484 -52.74564 434 ft 20 kts 77°
2026-04-27 15:07 47.62497 -52.74336 426 ft 24 kts 89°
2026-04-27 15:08 47.62515 -52.74057 417 ft 29 kts 75°
2026-04-27 15:08 47.62425 -52.73897 415 ft 22 kts 137°
2026-04-27 15:08 47.62307 -52.73746 413 ft 20 kts 156°
2026-04-27 15:08 47.62270 -52.73619 409 ft 2 kts 98°
2026-04-27 15:09 47.62261 -52.73628 409 ft 4 kts 317°
2026-04-27 15:09 47.62270 -52.73632 409 ft 0 kts
2026-04-27 15:41 47.62272 -52.73632 409 ft 1 kts
2026-04-27 15:41 47.62295 -52.73645 409 ft 6 kts 290°
2026-04-27 15:42 47.62290 -52.73698 412 ft 5 kts 243°
2026-04-27 15:42 47.62208 -52.73723 414 ft 15 kts 175°
2026-04-27 15:42 47.62091 -52.73712 414 ft 18 kts 176°
2026-04-27 15:42 47.61962 -52.73699 417 ft 18 kts 175°
2026-04-27 15:43 47.61828 -52.73684 419 ft 20 kts 175°
2026-04-27 15:43 47.61694 -52.73673 420 ft 18 kts 186°
2026-04-27 15:43 47.61613 -52.73785 425 ft 15 kts 242°
2026-04-27 15:43 47.61533 -52.73838 426 ft 16 kts 138°
2026-04-27 15:44 47.61443 -52.73717 425 ft 18 kts 137°
2026-04-27 15:44 47.61340 -52.73580 422 ft 21 kts 137°
2026-04-27 15:44 47.61223 -52.73427 420 ft 23 kts 128°
2026-04-27 15:44 47.61160 -52.73356 420 ft 6 kts 281°
2026-04-27 15:45 47.61172 -52.73376 420 ft 0 kts 319°
2026-04-27 15:45 47.61298 -52.73524 422 ft 66 kts 314°
2026-04-27 15:45 47.61835 -52.74230 434 ft 137 kts 319°
2026-04-27 15:45 47.62661 -52.75268 731 ft 170 kts 326°
2026-04-27 15:46 47.63577 -52.76291 1858 ft 160 kts 330°
2026-04-27 15:46 47.64368 -52.77333 2849 ft 163 kts 322°
2026-04-27 15:46 47.65171 -52.78639 3349 ft 183 kts 320°
2026-04-27 15:46 47.66077 -52.79993 3874 ft 183 kts 332°
2026-04-27 15:47 47.67289 -52.80468 4346 ft 191 kts 358°
2026-04-27 15:47 47.68692 -52.80573 4885 ft 217 kts 358°
2026-04-27 15:47 47.70246 -52.80703 5710 ft 230 kts 357°
2026-04-27 15:47 47.71828 -52.80873 6807 ft 234 kts 357°
2026-04-27 15:48 47.73430 -52.81051 7919 ft 238 kts 357°
2026-04-27 15:48 47.75077 -52.81234 8978 ft 244 kts 356°
2026-04-27 15:48 47.76755 -52.81422 10035 ft 248 kts 357°
2026-04-27 15:49 47.80336 -52.81823 11239 ft 286 kts 357°
2026-04-27 15:49 47.82392 -52.82053 11724 ft 306 kts 356°
2026-04-27 15:49 47.84540 -52.82296 12445 ft 316 kts 357°
2026-04-27 15:49 47.86742 -52.82548 13255 ft 321 kts 356°
2026-04-27 15:50 47.88971 -52.82803 14003 ft 327 kts 357°
2026-04-27 15:50 47.91248 -52.83064 14781 ft 331 kts 356°
2026-04-27 15:50 47.93538 -52.83327 15518 ft 335 kts 356°
2026-04-27 15:50 47.95878 -52.83597 16309 ft 337 kts 356°
2026-04-27 15:51 47.98183 -52.83863 17044 ft 340 kts 356°
2026-04-27 15:51 48.00557 -52.84138 17714 ft 343 kts 356°
2026-04-27 15:51 48.02923 -52.84412 18351 ft 347 kts 356°
2026-04-27 15:51 48.05329 -52.84690 18959 ft 350 kts 356°
2026-04-27 15:52 48.07756 -52.84972 19535 ft 354 kts 356°
2026-04-27 15:52 48.10219 -52.85258 20145 ft 356 kts 356°
2026-04-27 15:52 48.12697 -52.85546 20721 ft 360 kts 356°
2026-04-27 15:52 48.15190 -52.85837 21297 ft 362 kts 355°
2026-04-27 15:53 48.17718 -52.86132 21836 ft 366 kts 355°
2026-04-27 15:53 48.20253 -52.86427 22382 ft 368 kts 355°
2026-04-27 15:53 48.22798 -52.86725 22889 ft 371 kts 355°
2026-04-27 15:53 48.25360 -52.87025 23368 ft 374 kts 355°
2026-04-27 15:54 48.27981 -52.87332 23839 ft 377 kts 355°
2026-04-27 15:54 48.30576 -52.87637 24252 ft 381 kts 355°
2026-04-27 15:54 48.33225 -52.87948 24683 ft 385 kts 355°
2026-04-27 15:54 48.35912 -52.88264 25149 ft 387 kts 355°
2026-04-27 15:55 48.38605 -52.88581 25580 ft 391 kts 355°
2026-04-27 15:55 48.41323 -52.88901 25982 ft 395 kts 355°
2026-04-27 15:55 48.44065 -52.89225 26356 ft 398 kts 355°
2026-04-27 15:55 48.46825 -52.89551 26748 ft 401 kts 355°
2026-04-27 15:56 48.49604 -52.89879 27128 ft 404 kts 355°
2026-04-27 15:56 48.52384 -52.90208 27468 ft 407 kts 355°
2026-04-27 15:56 48.55231 -52.90546 27815 ft 410 kts 355°
2026-04-27 15:56 48.58074 -52.90884 28156 ft 412 kts 355°
2026-04-27 15:57 48.60944 -52.91225 28458 ft 415 kts 355°
2026-04-27 15:57 48.63805 -52.91565 28774 ft 417 kts 355°
2026-04-27 15:57 48.66705 -52.91911 29127 ft 418 kts 355°
2026-04-27 15:57 48.69606 -52.92256 29494 ft 419 kts 355°
2026-04-27 15:58 48.72494 -52.92601 29875 ft 419 kts 355°
2026-04-27 15:58 48.75387 -52.92947 30236 ft 419 kts 355°
2026-04-27 15:58 48.78265 -52.93292 30628 ft 418 kts 355°
2026-04-27 15:58 48.81179 -52.93641 31016 ft 417 kts 354°
2026-04-27 15:59 48.84043 -52.93985 31367 ft 417 kts 354°
2026-04-27 15:59 48.86905 -52.94329 31722 ft 416 kts 354°
2026-04-27 15:59 48.89799 -52.94677 32048 ft 416 kts 354°
2026-04-27 15:59 48.92658 -52.95021 32368 ft 415 kts 354°
2026-04-27 16:00 48.95542 -52.95369 32675 ft 415 kts 354°
2026-04-27 16:00 48.98384 -52.95712 32970 ft 414 kts 354°
2026-04-27 16:00 49.01258 -52.96060 33236 ft 414 kts 354°
2026-04-27 16:00 49.04124 -52.96407 33516 ft 414 kts 354°
2026-04-27 16:01 49.06991 -52.96755 33733 ft 414 kts 354°
2026-04-27 16:01 49.09881 -52.97105 33858 ft 417 kts 354°
2026-04-27 16:01 49.12775 -52.97457 34024 ft 419 kts 354°
2026-04-27 16:01 49.15653 -52.97807 34231 ft 419 kts 354°
2026-04-27 16:02 49.18570 -52.98163 34440 ft 420 kts 354°
2026-04-27 16:02 49.21440 -52.98512 34648 ft 420 kts 354°
2026-04-27 16:02 49.24380 -52.98871 34869 ft 420 kts 354°
2026-04-27 16:02 49.27264 -52.99224 35130 ft 419 kts 354°
2026-04-27 16:03 49.30174 -52.99580 35388 ft 418 kts 354°
2026-04-27 16:03 49.33058 -52.99933 35663 ft 417 kts 354°
2026-04-27 16:03 49.35936 -53.00286 35898 ft 416 kts 354°
2026-04-27 16:03 49.38800 -53.00637 36128 ft 415 kts 354°
2026-04-27 16:04 49.41663 -53.00990 36316 ft 415 kts 354°
2026-04-27 16:04 49.44552 -53.01345 36479 ft 416 kts 353°
2026-04-27 16:04 49.47408 -53.01698 36626 ft 416 kts 353°
2026-04-27 16:04 49.50285 -53.02053 36785 ft 416 kts 354°
2026-04-27 16:05 49.53165 -53.02409 36921 ft 417 kts 353°
2026-04-27 16:05 49.56047 -53.02765 37061 ft 417 kts 353°
2026-04-27 16:05 49.58934 -53.03123 37205 ft 417 kts 353°
2026-04-27 16:05 49.61813 -53.03480 37335 ft 418 kts 353°
2026-04-27 16:06 49.64713 -53.03841 37317 ft 420 kts 353°
2026-04-27 16:06 49.70513 -53.04562 37321 ft 420 kts 353°
2026-04-27 16:07 49.76334 -53.05287 37319 ft 418 kts 353°
2026-04-27 16:07 49.82093 -53.06007 37322 ft 417 kts 353°
2026-04-27 16:08 49.87872 -53.06731 37318 ft 417 kts 353°
2026-04-27 16:08 49.93650 -53.07456 37316 ft 418 kts 353°
2026-04-27 16:09 49.99407 -53.08181 37318 ft 418 kts 353°
2026-04-27 16:09 50.08093 -53.09277 37327 ft 418 kts 353°
2026-04-27 16:10 50.19658 -53.10743 37314 ft 418 kts 353°
2026-04-27 16:11 50.28335 -53.11848 37307 ft 419 kts 353°
2026-04-27 16:12 50.37004 -53.12956 37306 ft 419 kts 353°
2026-04-27 16:13 50.45677 -53.14068 37302 ft 419 kts 353°
2026-04-27 16:13 50.54365 -53.15185 37312 ft 419 kts 352°
2026-04-27 16:14 50.65956 -53.16684 37320 ft 420 kts 352°
2026-04-27 16:15 50.77581 -53.18193 37324 ft 419 kts 352°
2026-04-27 16:16 50.89159 -53.19704 37321 ft 420 kts 352°
2026-04-27 16:17 51.00780 -53.21006 37322 ft 423 kts 358°
2026-04-27 16:18 51.06653 -53.19780 37328 ft 429 kts 10°
2026-04-27 16:18 51.12231 -53.16462 37322 ft 437 kts 23°
2026-04-27 16:19 51.17320 -53.11022 37325 ft 445 kts 37°
2026-04-27 16:20 51.23139 -52.99446 37318 ft 457 kts 58°
2026-04-27 16:20 51.24497 -52.94829 37316 ft 459 kts 63°
2026-04-27 16:21 51.28261 -52.80901 37079 ft 456 kts 63°
2026-04-27 16:21 51.31983 -52.67097 37295 ft 462 kts 62°
2026-04-27 16:22 51.33250 -52.62384 37658 ft 464 kts 62°
2026-04-27 16:22 51.35804 -52.52866 37261 ft 467 kts 62°
2026-04-27 16:22 51.37085 -52.48074 37256 ft 470 kts 62°
2026-04-27 16:23 51.40933 -52.33635 37308 ft 474 kts 63°
2026-04-27 16:24 51.43507 -52.23927 37300 ft 475 kts 63°
2026-04-27 16:25 51.48621 -52.04523 37301 ft 473 kts 63°
2026-04-27 16:26 51.53685 -51.85151 37289 ft 473 kts 63°
2026-04-27 16:27 51.58725 -51.65710 37280 ft 472 kts 62°
2026-04-27 16:28 51.64978 -51.41361 37271 ft 474 kts 62°
2026-04-27 16:29 51.71180 -51.16949 37264 ft 473 kts 63°
2026-04-27 16:30 51.76086 -50.97447 37259 ft 472 kts 63°
2026-04-27 16:31 51.82202 -50.72891 37244 ft 472 kts 63°
2026-04-27 16:32 51.85832 -50.58190 37242 ft 472 kts 63°
2026-04-27 16:33 51.89454 -50.43422 37237 ft 472 kts 63°
2026-04-27 16:33 51.91846 -50.33615 37241 ft 472 kts 63°
2026-04-27 16:34 51.94230 -50.23799 37247 ft 472 kts 63°
2026-04-27 16:34 51.96621 -50.13906 37240 ft 472 kts 63°
2026-04-27 16:35 51.98999 -50.04023 37239 ft 472 kts 63°
2026-04-27 16:36 52.02661 -49.89277 37230 ft 471 kts 62°
2026-04-27 16:36 52.05125 -49.79488 37226 ft 471 kts 62°
2026-04-27 16:37 52.07590 -49.69644 37223 ft 471 kts 62°
2026-04-27 16:37 52.10035 -49.59835 37224 ft 471 kts 62°
2026-04-27 16:38 52.12482 -49.49977 37221 ft 471 kts 62°
2026-04-27 16:38 52.14902 -49.40178 37213 ft 470 kts 62°
2026-04-27 16:39 52.17323 -49.30331 37207 ft 470 kts 63°
2026-04-27 16:39 52.19748 -49.20425 37205 ft 470 kts 63°
2026-04-27 16:40 52.22137 -49.10623 37202 ft 470 kts 62°
2026-04-27 16:40 52.24543 -49.00706 37195 ft 470 kts 62°
2026-04-27 16:41 52.26925 -48.90839 37194 ft 470 kts 62°
2026-04-27 16:41 52.29309 -48.80924 37180 ft 470 kts 62°
2026-04-27 16:42 52.31672 -48.71044 37186 ft 470 kts 62°
2026-04-27 16:42 52.34031 -48.61141 37180 ft 470 kts 62°
2026-04-27 16:43 52.36388 -48.51197 37173 ft 469 kts 62°
2026-04-27 16:43 52.38734 -48.41257 37165 ft 469 kts 62°
2026-04-27 16:44 52.41054 -48.31379 37166 ft 468 kts 63°
2026-04-27 16:44 52.43373 -48.21462 37165 ft 468 kts 63°
2026-04-27 16:45 52.45683 -48.11537 37167 ft 468 kts 63°
2026-04-27 16:45 52.47990 -48.01580 37161 ft 468 kts 63°
2026-04-27 16:46 52.50285 -47.91626 37164 ft 468 kts 63°
2026-04-27 16:46 52.52556 -47.81730 37158 ft 468 kts 63°
2026-04-27 16:47 52.54841 -47.71728 37158 ft 468 kts 63°
2026-04-27 16:47 52.57099 -47.61791 37153 ft 468 kts 63°
2026-04-27 16:48 52.59359 -47.51800 37155 ft 468 kts 63°
2026-04-27 16:48 52.61607 -47.41816 37145 ft 467 kts 63°
2026-04-27 16:49 52.64962 -47.26825 37155 ft 468 kts 63°
2026-04-27 16:49 52.67200 -47.16769 37149 ft 468 kts 64°
2026-04-27 16:50 52.69419 -47.06746 37145 ft 468 kts 63°
2026-04-27 16:50 52.71621 -46.96747 37145 ft 467 kts 63°
2026-04-27 16:51 52.73830 -46.86673 37147 ft 468 kts 63°
2026-04-27 16:51 52.76018 -46.76643 37141 ft 468 kts 64°
2026-04-27 16:52 52.78206 -46.66564 37138 ft 468 kts 64°
2026-04-27 16:52 52.80392 -46.56444 37134 ft 468 kts 63°
2026-04-27 16:53 52.82556 -46.46377 37129 ft 467 kts 63°
2026-04-27 16:53 52.84706 -46.36324 37125 ft 467 kts 64°
2026-04-27 16:54 52.86861 -46.26201 37127 ft 467 kts 64°
2026-04-27 16:54 52.88996 -46.16115 37123 ft 467 kts 64°
2026-04-27 16:55 52.91126 -46.06007 37109 ft 467 kts 64°
2026-04-27 16:55 52.93242 -45.95912 37119 ft 467 kts 64°
2026-04-27 16:56 52.95353 -45.85794 37110 ft 467 kts 64°
2026-04-27 16:56 52.97459 -45.75645 37105 ft 468 kts 64°
2026-04-27 16:57 52.99561 -45.65462 37097 ft 467 kts 65°
2026-04-27 16:57 53.01647 -45.55307 37095 ft 467 kts 64°
2026-04-27 16:58 53.03731 -45.45108 37092 ft 468 kts 64°
2026-04-27 16:58 53.05795 -45.34955 37085 ft 467 kts 65°
2026-04-27 16:59 53.07853 -45.24778 37079 ft 467 kts 65°
2026-04-27 16:59 53.09909 -45.14556 37079 ft 466 kts 65°
2026-04-27 17:00 53.12969 -44.99245 37072 ft 467 kts 65°
2026-04-27 17:01 53.14997 -44.89031 37075 ft 467 kts 65°
2026-04-27 17:01 53.17014 -44.78819 37074 ft 466 kts 65°
2026-04-27 17:02 53.19019 -44.68613 37084 ft 466 kts 65°
2026-04-27 17:02 53.21027 -44.58334 37076 ft 466 kts 66°
2026-04-27 17:03 53.23010 -44.48132 37071 ft 466 kts 66°
2026-04-27 17:03 53.24997 -44.37856 37063 ft 466 kts 66°
2026-04-27 17:04 53.26959 -44.27649 37059 ft 466 kts 67°
2026-04-27 17:04 53.28931 -44.17339 37058 ft 467 kts 67°
2026-04-27 17:05 53.30881 -44.07086 37056 ft 467 kts 67°
2026-04-27 17:05 53.32835 -43.96755 37050 ft 466 kts 67°
2026-04-27 17:06 53.34764 -43.86499 37054 ft 466 kts 67°
2026-04-27 17:06 53.36699 -43.76158 37058 ft 465 kts 67°
2026-04-27 17:07 53.38614 -43.65869 37052 ft 466 kts 67°
2026-04-27 17:07 53.40519 -43.55568 37049 ft 467 kts 67°
2026-04-27 17:08 53.42425 -43.45210 37050 ft 467 kts 68°
2026-04-27 17:08 53.44316 -43.34874 37053 ft 465 kts 68°
2026-04-27 17:09 53.46200 -43.24516 37055 ft 465 kts 68°
2026-04-27 17:09 53.48075 -43.14154 37053 ft 466 kts 69°
2026-04-27 17:10 53.49943 -43.03769 37061 ft 467 kts 69°
2026-04-27 17:10 53.51802 -42.93372 37057 ft 466 kts 69°
2026-04-27 17:11 53.53639 -42.83044 37042 ft 467 kts 69°
2026-04-27 17:11 53.56398 -42.67415 37042 ft 466 kts 69°
2026-04-27 17:12 53.59132 -42.51795 37040 ft 466 kts 69°
2026-04-27 17:13 53.60948 -42.41340 37033 ft 467 kts 69°
2026-04-27 17:13 53.62745 -42.30934 37034 ft 466 kts 70°
2026-04-27 17:14 53.64545 -42.20450 37035 ft 467 kts 70°
2026-04-27 17:14 53.66337 -42.09953 37034 ft 467 kts 70°
2026-04-27 17:15 53.68109 -41.99509 37030 ft 467 kts 70°
2026-04-27 17:15 53.69880 -41.89003 37023 ft 466 kts 70°
2026-04-27 17:16 53.71632 -41.78554 37025 ft 466 kts 70°
2026-04-27 17:16 53.73377 -41.68081 37021 ft 466 kts 70°
2026-04-27 17:17 53.75125 -41.57527 37023 ft 466 kts 70°
2026-04-27 17:17 53.76848 -41.47055 37005 ft 466 kts 70°
2026-04-27 17:18 53.79430 -41.31251 37002 ft 466 kts 71°
2026-04-27 17:18 53.81132 -41.20747 36991 ft 466 kts 71°
2026-04-27 17:19 53.82839 -41.10153 36991 ft 467 kts 71°
2026-04-27 17:19 53.84524 -40.99624 36989 ft 467 kts 71°
2026-04-27 17:20 53.86199 -40.89095 36990 ft 466 kts 72°
2026-04-27 17:20 53.87873 -40.78503 37001 ft 466 kts 72°
2026-04-27 17:21 53.89526 -40.67974 37004 ft 466 kts 72°
2026-04-27 17:21 53.91177 -40.57399 36995 ft 467 kts 72°
2026-04-27 17:22 53.92820 -40.46801 36997 ft 467 kts 72°
2026-04-27 17:22 53.94450 -40.36221 36989 ft 466 kts 72°
2026-04-27 17:23 53.96075 -40.25606 36971 ft 466 kts 73°
2026-04-27 17:23 53.97689 -40.14992 36986 ft 466 kts 73°
2026-04-27 17:24 53.99295 -40.04365 36974 ft 467 kts 73°
2026-04-27 17:24 54.00862 -39.93716 36976 ft 467 kts 74°
2026-04-27 17:25 54.02393 -39.83034 36970 ft 467 kts 74°
2026-04-27 17:25 54.03912 -39.72359 36965 ft 467 kts 74°
2026-04-27 17:26 54.05425 -39.61664 36966 ft 467 kts 75°
2026-04-27 17:26 54.06935 -39.50905 36961 ft 467 kts 75°
2026-04-27 17:27 54.08428 -39.40196 36968 ft 467 kts 75°
2026-04-27 17:27 54.09906 -39.29518 36952 ft 467 kts 76°
2026-04-27 17:28 54.11383 -39.18777 36943 ft 467 kts 76°
2026-04-27 17:29 54.13577 -39.02672 37123 ft 467 kts 76°
2026-04-27 17:29 54.14303 -38.97311 36965 ft 470 kts 76°
2026-04-27 17:29 54.15031 -38.91908 36943 ft 468 kts 76°
2026-04-27 17:30 54.16466 -38.81198 36924 ft 464 kts 76°
2026-04-27 17:30 54.18588 -38.65223 36937 ft 463 kts 76°
2026-04-27 17:31 54.20004 -38.54469 36944 ft 467 kts 77°
2026-04-27 17:31 54.21417 -38.43657 36938 ft 469 kts 77°
2026-04-27 17:32 54.23516 -38.27430 36924 ft 470 kts 78°
2026-04-27 17:33 54.24906 -38.16586 37105 ft 469 kts 78°
2026-04-27 17:33 54.25605 -38.11099 36938 ft 471 kts 78°
2026-04-27 17:33 54.26286 -38.05743 36937 ft 468 kts 78°
2026-04-27 17:34 54.27655 -37.94890 36937 ft 465 kts 78°
2026-04-27 17:34 54.28996 -37.84184 36815 ft 464 kts 78°
2026-04-27 17:34 54.29671 -37.78764 36916 ft 465 kts 78°
2026-04-27 17:35 54.30336 -37.73408 36938 ft 467 kts 78°
2026-04-27 17:35 54.31675 -37.62547 36931 ft 470 kts 78°
2026-04-27 17:36 54.33021 -37.51547 36938 ft 471 kts 79°
2026-04-27 17:36 54.34340 -37.40678 36927 ft 471 kts 79°
2026-04-27 17:37 54.35665 -37.29668 36921 ft 471 kts 80°
2026-04-27 17:37 54.36973 -37.18715 36911 ft 471 kts 80°
2026-04-27 17:38 54.38263 -37.07825 36912 ft 470 kts 81°
2026-04-27 17:38 54.39555 -36.96825 36905 ft 470 kts 81°
2026-04-27 17:39 54.40825 -36.85923 36908 ft 470 kts 81°
2026-04-27 17:39 54.42094 -36.74934 36902 ft 471 kts 81°
2026-04-27 17:40 54.43353 -36.63942 37028 ft 472 kts 81°
2026-04-27 17:40 54.43975 -36.58468 36911 ft 473 kts 81°
2026-04-27 17:40 54.44605 -36.52913 36906 ft 471 kts 81°
2026-04-27 17:41 54.45841 -36.41937 36897 ft 470 kts 81°
2026-04-27 17:41 54.47063 -36.30992 36899 ft 471 kts 82°
2026-04-27 17:42 54.48287 -36.19928 36898 ft 471 kts 82°
2026-04-27 17:42 54.49494 -36.08919 36895 ft 472 kts 82°
2026-04-27 17:43 54.50693 -35.97893 36887 ft 473 kts 82°
2026-04-27 17:43 54.51891 -35.86775 36882 ft 473 kts 82°
2026-04-27 17:44 54.53068 -35.75748 36885 ft 473 kts 82°
2026-04-27 17:44 54.54248 -35.64594 36885 ft 473 kts 83°
2026-04-27 17:45 54.55409 -35.53527 36884 ft 473 kts 83°
2026-04-27 17:45 54.56560 -35.42438 36885 ft 474 kts 83°
2026-04-27 17:46 54.57707 -35.31300 36883 ft 474 kts 84°
2026-04-27 17:46 54.58845 -35.20130 36885 ft 475 kts 84°
2026-04-27 17:47 54.59970 -35.08990 36886 ft 475 kts 84°
2026-04-27 17:47 54.61089 -34.97803 36882 ft 476 kts 84°
2026-04-27 17:48 54.62205 -34.86530 36879 ft 476 kts 84°
2026-04-27 17:48 54.63300 -34.75361 36881 ft 476 kts 84°
2026-04-27 17:49 54.64390 -34.64139 36876 ft 476 kts 84°
2026-04-27 17:49 54.65469 -34.52914 36877 ft 476 kts 84°
2026-04-27 17:50 54.66536 -34.41706 36876 ft 476 kts 85°
2026-04-27 17:50 54.68118 -34.24861 36887 ft 475 kts 85°
2026-04-27 17:51 54.69160 -34.13617 36888 ft 475 kts 86°
2026-04-27 17:51 54.70190 -34.02394 36885 ft 476 kts 86°
2026-04-27 17:52 54.71215 -33.91096 36884 ft 476 kts 86°
2026-04-27 17:52 54.72221 -33.79892 36887 ft 476 kts 86°
2026-04-27 17:53 54.73225 -33.68594 36890 ft 475 kts 86°
2026-04-27 17:53 54.74215 -33.57331 36890 ft 475 kts 87°
2026-04-27 17:54 54.75192 -33.46086 36884 ft 475 kts 87°
2026-04-27 17:54 54.76157 -33.34850 36885 ft 475 kts 88°
2026-04-27 17:55 54.77117 -33.23568 36832 ft 472 kts 89°
2026-04-27 17:55 54.78056 -33.12374 36886 ft 476 kts 88°
2026-04-27 17:56 54.78999 -33.01006 36890 ft 479 kts 89°
2026-04-27 17:56 54.79933 -32.89629 36899 ft 478 kts 89°
2026-04-27 17:57 54.80854 -32.78284 36893 ft 478 kts 89°
2026-04-27 17:57 54.81763 -32.66951 36893 ft 477 kts 89°
2026-04-27 17:58 54.82661 -32.55603 36897 ft 476 kts 89°
2026-04-27 17:58 54.83540 -32.44361 36899 ft 476 kts 89°
2026-04-27 17:59 54.84421 -32.32959 36902 ft 476 kts 90°
2026-04-27 17:59 54.85284 -32.21648 36904 ft 475 kts 90°
2026-04-27 18:00 54.86133 -32.10371 36904 ft 476 kts 90°
2026-04-27 18:00 54.86975 -31.99050 36897 ft 476 kts 91°
2026-04-27 18:01 54.87811 -31.87660 36893 ft 475 kts 90°
2026-04-27 18:01 54.88628 -31.76381 36895 ft 475 kts 91°
2026-04-27 18:02 54.89440 -31.65021 36892 ft 474 kts 91°
2026-04-27 18:02 54.90237 -31.53716 36913 ft 475 kts 91°
2026-04-27 18:03 54.91025 -31.42380 36912 ft 475 kts 91°
2026-04-27 18:03 54.91806 -31.30999 36912 ft 475 kts 92°
2026-04-27 18:04 54.92569 -31.19712 36914 ft 475 kts 92°
2026-04-27 18:04 54.93325 -31.08377 36920 ft 474 kts 92°
2026-04-27 18:05 54.94072 -30.97021 36915 ft 473 kts 92°
2026-04-27 18:05 54.94806 -30.85685 36928 ft 473 kts 92°
2026-04-27 18:06 54.95526 -30.74397 36933 ft 474 kts 92°
2026-04-27 18:06 54.96239 -30.63039 36921 ft 476 kts 92°
2026-04-27 18:07 54.96946 -30.51635 36917 ft 475 kts 92°
2026-04-27 18:07 54.97640 -30.40233 36920 ft 475 kts 92°
2026-04-27 18:08 54.98323 -30.28863 36920 ft 474 kts 93°
2026-04-27 18:08 54.98992 -30.17523 36926 ft 473 kts 93°
2026-04-27 18:09 54.99648 -30.06234 36924 ft 473 kts 93°
2026-04-27 18:09 55.00220 -29.94878 36940 ft 472 kts 95°
2026-04-27 18:10 55.00677 -29.83503 36934 ft 472 kts 95°
2026-04-27 18:10 55.01122 -29.72179 36932 ft 470 kts 95°
2026-04-27 18:11 55.01555 -29.60908 36927 ft 469 kts 95°
2026-04-27 18:11 55.01979 -29.49597 36940 ft 468 kts 95°
2026-04-27 18:12 55.02390 -29.38347 36933 ft 468 kts 95°
2026-04-27 18:12 55.02792 -29.27059 36948 ft 468 kts 95°
2026-04-27 18:13 55.03182 -29.15820 36932 ft 467 kts 96°
2026-04-27 18:13 55.03560 -29.04610 36957 ft 466 kts 96°
2026-04-27 18:14 55.03928 -28.93390 36946 ft 466 kts 96°
2026-04-27 18:14 55.04287 -28.82111 36959 ft 467 kts 96°
2026-04-27 18:15 55.04633 -28.70928 36948 ft 466 kts 96°
2026-04-27 18:15 55.04973 -28.59627 36944 ft 466 kts 96°
2026-04-27 18:16 55.05299 -28.48416 36963 ft 465 kts 96°
2026-04-27 18:16 55.05615 -28.37211 36961 ft 466 kts 96°
2026-04-27 18:17 55.05920 -28.25979 36961 ft 466 kts 97°
2026-04-27 18:17 55.06215 -28.14791 36964 ft 465 kts 97°
2026-04-27 18:18 55.06500 -28.03555 36970 ft 465 kts 97°
2026-04-27 18:18 55.06775 -27.92332 36968 ft 465 kts 96°
2026-04-27 18:19 55.07040 -27.81107 36972 ft 465 kts 96°
2026-04-27 18:19 55.07294 -27.69829 36974 ft 465 kts 96°
2026-04-27 18:20 55.07537 -27.58633 36972 ft 466 kts 96°
2026-04-27 18:20 55.07771 -27.47357 36973 ft 466 kts 96°
2026-04-27 18:21 55.07994 -27.36113 36980 ft 466 kts 96°
2026-04-27 18:21 55.08206 -27.24914 36985 ft 466 kts 97°
2026-04-27 18:22 55.08409 -27.13642 36988 ft 465 kts 97°
2026-04-27 18:22 55.08600 -27.02428 36990 ft 464 kts 97°
2026-04-27 18:23 55.08780 -26.91257 36991 ft 464 kts 97°
2026-04-27 18:23 55.08950 -26.80044 36993 ft 464 kts 96°
2026-04-27 18:24 55.09110 -26.68841 37003 ft 464 kts 96°
2026-04-27 18:24 55.09259 -26.57622 37001 ft 465 kts 96°
2026-04-27 18:25 55.09399 -26.46385 37010 ft 465 kts 96°
2026-04-27 18:25 55.09529 -26.35097 37016 ft 465 kts 96°
2026-04-27 18:26 55.09647 -26.23879 37009 ft 464 kts 97°
2026-04-27 18:26 55.09756 -26.12694 37016 ft 464 kts 97°
2026-04-27 18:27 55.09853 -26.01451 37033 ft 464 kts 97°
2026-04-27 18:27 55.09941 -25.90244 37031 ft 465 kts 97°
2026-04-27 18:28 55.10018 -25.79018 37035 ft 464 kts 97°
2026-04-27 18:28 55.10085 -25.67846 37035 ft 464 kts 97°
2026-04-27 18:29 55.10141 -25.56647 37035 ft 464 kts 97°
2026-04-27 18:29 55.10187 -25.45403 37038 ft 464 kts 97°
2026-04-27 18:30 55.10223 -25.34188 37043 ft 464 kts 98°
2026-04-27 18:30 55.10249 -25.22982 37044 ft 464 kts 97°
2026-04-27 18:31 55.10264 -25.11778 37045 ft 463 kts 97°
2026-04-27 18:31 55.10268 -25.00621 37047 ft 463 kts 97°
2026-04-27 18:32 55.10263 -24.89406 37063 ft 463 kts 97°
2026-04-27 18:32 55.10247 -24.78231 37069 ft 463 kts 97°
2026-04-27 18:33 55.10221 -24.67011 37068 ft 464 kts 97°
2026-04-27 18:33 55.10184 -24.55768 37076 ft 465 kts 97°
2026-04-27 18:34 55.10136 -24.44505 37076 ft 467 kts 97°
2026-04-27 18:34 55.10079 -24.33232 37099 ft 467 kts 97°
2026-04-27 18:35 55.10046 -24.27605 37393 ft 468 kts 97°
2026-04-27 18:35 55.10009 -24.21903 37155 ft 470 kts 97°
2026-04-27 18:35 55.09933 -24.10593 37111 ft 464 kts 97°
2026-04-27 18:36 55.09846 -23.99467 37110 ft 463 kts 97°
2026-04-27 18:36 55.09747 -23.88252 37118 ft 464 kts 97°
2026-04-27 18:37 55.09637 -23.76981 37115 ft 464 kts 97°
2026-04-27 18:37 55.09518 -23.65792 37117 ft 464 kts 97°
2026-04-27 18:38 55.09388 -23.54579 37115 ft 464 kts 97°
2026-04-27 18:38 55.09248 -23.43370 37125 ft 464 kts 97°
2026-04-27 18:39 55.09098 -23.32187 37129 ft 464 kts 97°
2026-04-27 18:39 55.08938 -23.20968 37129 ft 464 kts 97°
2026-04-27 18:40 55.08768 -23.09800 37126 ft 463 kts 97°
2026-04-27 18:40 55.08586 -22.98580 37132 ft 463 kts 97°
2026-04-27 18:41 55.08396 -22.87446 37134 ft 463 kts 97°
2026-04-27 18:41 55.08195 -22.76243 37148 ft 463 kts 97°
2026-04-27 18:42 55.08021 -22.66983 37165 ft 462 kts 96°
2026-04-27 18:42 55.07762 -22.53870 37160 ft 463 kts 96°
2026-04-27 18:43 55.07530 -22.42698 37161 ft 463 kts 96°
2026-04-27 18:43 55.07289 -22.31568 37167 ft 463 kts 97°
2026-04-27 18:44 55.07037 -22.20410 37180 ft 461 kts 97°
2026-04-27 18:44 55.06778 -22.09338 37187 ft 461 kts 97°
2026-04-27 18:45 55.06505 -21.98158 37195 ft 461 kts 97°
2026-04-27 18:45 55.06224 -21.87067 37192 ft 461 kts 96°
2026-04-27 18:46 55.05932 -21.75941 37193 ft 461 kts 96°
2026-04-27 18:46 55.05631 -21.64835 37206 ft 461 kts 96°
2026-04-27 18:47 55.05321 -21.53799 37206 ft 460 kts 96°
2026-04-27 18:47 55.05000 -21.42696 37206 ft 460 kts 96°
2026-04-27 18:48 55.04668 -21.31612 37205 ft 460 kts 97°
2026-04-27 18:48 55.04327 -21.20523 37213 ft 460 kts 96°
2026-04-27 18:49 55.03976 -21.09446 37216 ft 459 kts 96°
2026-04-27 18:49 55.03616 -20.98383 37216 ft 458 kts 96°
2026-04-27 18:50 55.03245 -20.87353 37224 ft 458 kts 96°
2026-04-27 18:50 55.02865 -20.76307 37228 ft 458 kts 96°
2026-04-27 18:51 55.02476 -20.65293 37231 ft 458 kts 96°
2026-04-27 18:51 55.02076 -20.54263 37231 ft 458 kts 96°
2026-04-27 18:52 55.01667 -20.43239 37239 ft 458 kts 95°
2026-04-27 18:53 55.01034 -20.26706 37244 ft 458 kts 96°
2026-04-27 18:53 55.00599 -20.15671 37247 ft 458 kts 96°
2026-04-27 18:54 55.00151 -20.04620 37255 ft 457 kts 96°
2026-04-27 18:54 54.98936 -19.93908 37258 ft 453 kts 109°
2026-04-27 18:55 54.97134 -19.83754 37261 ft 453 kts 109°
2026-04-27 18:55 54.95277 -19.73313 37263 ft 453 kts 109°
2026-04-27 18:56 54.93423 -19.62930 37265 ft 453 kts 108°
2026-04-27 18:56 54.91551 -19.52503 37274 ft 453 kts 108°
2026-04-27 18:57 54.89677 -19.42116 37279 ft 454 kts 108°
2026-04-27 18:57 54.87784 -19.31679 37289 ft 453 kts 109°
2026-04-27 18:58 54.85893 -19.21304 37292 ft 453 kts 109°
2026-04-27 18:58 54.83998 -19.10971 37298 ft 452 kts 109°
2026-04-27 18:59 54.82092 -19.00626 37294 ft 453 kts 109°
2026-04-27 18:59 54.80165 -18.90225 37298 ft 453 kts 109°
2026-04-27 19:00 54.78252 -18.79959 37301 ft 453 kts 109°
2026-04-27 19:00 54.76309 -18.69587 37302 ft 454 kts 109°
2026-04-27 19:01 54.74361 -18.59243 37304 ft 454 kts 109°
2026-04-27 19:01 54.72406 -18.48916 37301 ft 454 kts 109°
2026-04-27 19:02 54.70440 -18.38590 37301 ft 454 kts 109°
2026-04-27 19:02 54.68460 -18.28245 37306 ft 454 kts 110°
2026-04-27 19:03 54.66477 -18.17939 37307 ft 454 kts 110°
2026-04-27 19:03 54.64484 -18.07640 37311 ft 455 kts 110°
2026-04-27 19:04 54.62488 -17.97376 37320 ft 455 kts 110°
2026-04-27 19:04 54.60469 -17.87051 37321 ft 455 kts 110°
2026-04-27 19:05 54.58447 -17.76765 37323 ft 455 kts 110°
2026-04-27 19:05 54.56423 -17.66519 37323 ft 455 kts 110°
2026-04-27 19:06 54.54388 -17.56274 37327 ft 454 kts 110°
2026-04-27 19:06 54.52343 -17.46031 37331 ft 454 kts 110°
2026-04-27 19:07 54.50293 -17.35819 37338 ft 454 kts 110°
2026-04-27 19:07 54.48219 -17.25537 37339 ft 454 kts 110°
2026-04-27 19:08 54.46154 -17.15354 37338 ft 454 kts 110°
2026-04-27 19:08 54.44069 -17.05126 37341 ft 454 kts 111°
2026-04-27 19:08 54.43039 -17.00092 36981 ft 454 kts 110°
2026-04-27 19:09 54.41997 -16.95009 37258 ft 450 kts 110°
2026-04-27 19:09 54.39912 -16.84889 37335 ft 455 kts 110°
2026-04-27 19:10 54.37786 -16.74619 37344 ft 457 kts 110°
2026-04-27 19:10 54.35668 -16.64434 37355 ft 457 kts 110°
2026-04-27 19:11 54.33522 -16.54170 37361 ft 457 kts 110°
2026-04-27 19:11 54.31392 -16.44031 37365 ft 457 kts 110°
2026-04-27 19:12 54.29247 -16.33876 37371 ft 457 kts 111°
2026-04-27 19:12 54.27088 -16.23703 37371 ft 457 kts 111°
2026-04-27 19:13 54.24920 -16.13538 37373 ft 456 kts 111°
2026-04-27 19:13 54.22749 -16.03408 37377 ft 456 kts 111°
2026-04-27 19:14 54.20557 -15.93233 37378 ft 456 kts 111°
2026-04-27 19:14 54.18367 -15.83118 37374 ft 457 kts 111°
2026-04-27 19:15 54.16175 -15.73038 37370 ft 458 kts 111°
2026-04-27 19:15 54.13957 -15.62894 37373 ft 458 kts 111°
2026-04-27 19:16 54.11729 -15.52749 37380 ft 458 kts 111°
2026-04-27 19:16 54.09499 -15.42647 37387 ft 457 kts 111°
2026-04-27 19:17 54.07262 -15.32560 37383 ft 457 kts 111°
2026-04-27 19:17 54.05014 -15.22476 37395 ft 457 kts 111°
2026-04-27 19:18 54.02755 -15.12386 37402 ft 458 kts 111°
2026-04-27 19:18 54.00705 -15.02224 37400 ft 458 kts 103°
2026-04-27 19:19 54.00027 -14.91547 37401 ft 457 kts 90°
2026-04-27 19:19 54.00058 -14.80797 37403 ft 458 kts 89°
2026-04-27 19:20 54.00077 -14.70047 37403 ft 458 kts 89°
2026-04-27 19:20 54.00088 -14.59271 37397 ft 458 kts 89°
2026-04-27 19:21 54.00091 -14.48462 37400 ft 458 kts 89°
2026-04-27 19:21 54.00084 -14.37736 37400 ft 458 kts 89°
2026-04-27 19:22 54.00069 -14.26955 37403 ft 457 kts 90°
2026-04-27 19:22 54.00044 -14.16229 37402 ft 457 kts 90°
2026-04-27 19:23 54.00010 -14.05502 37417 ft 456 kts 90°
2026-04-27 19:23 53.99849 -13.94758 37419 ft 456 kts 92°
2026-04-27 19:24 53.99521 -13.83993 37425 ft 456 kts 92°
2026-04-27 19:24 53.99191 -13.73365 37414 ft 455 kts 92°
2026-04-27 19:25 53.98848 -13.62654 37411 ft 454 kts 92°
2026-04-27 19:25 53.98499 -13.52012 37415 ft 454 kts 92°
2026-04-27 19:26 53.98138 -13.41286 37414 ft 454 kts 92°
2026-04-27 19:26 53.97772 -13.30653 37417 ft 453 kts 92°
2026-04-27 19:27 53.97395 -13.20006 37416 ft 453 kts 92°
2026-04-27 19:27 53.97012 -13.09458 37415 ft 452 kts 92°
2026-04-27 19:28 53.96616 -12.98799 37403 ft 451 kts 92°
2026-04-27 19:28 53.96217 -12.88286 37399 ft 450 kts 92°
2026-04-27 19:29 53.95805 -12.77706 37405 ft 450 kts 92°
2026-04-27 19:29 53.95383 -12.67108 37400 ft 450 kts 92°
2026-04-27 19:30 53.94956 -12.56583 37402 ft 450 kts 92°
2026-04-27 19:30 53.94519 -12.46068 37410 ft 450 kts 92°
2026-04-27 19:31 53.94070 -12.35475 37420 ft 451 kts 92°
2026-04-27 19:31 53.93612 -12.24908 37418 ft 451 kts 92°
2026-04-27 19:32 53.93144 -12.14312 37420 ft 451 kts 92°
2026-04-27 19:32 53.92671 -12.03823 37421 ft 451 kts 92°
2026-04-27 19:33 53.92185 -11.93264 37419 ft 450 kts 92°
2026-04-27 19:33 53.91691 -11.82726 37420 ft 450 kts 92°
2026-04-27 19:34 53.91186 -11.72139 37422 ft 450 kts 92°
2026-04-27 19:34 53.90673 -11.61614 37423 ft 450 kts 92°
2026-04-27 19:35 53.90154 -11.51132 37422 ft 449 kts 91°
2026-04-27 19:35 53.89625 -11.40641 37419 ft 448 kts 91°
2026-04-27 19:36 53.89086 -11.30149 37418 ft 448 kts 92°
2026-04-27 19:36 53.88541 -11.19695 37421 ft 448 kts 92°
2026-04-27 19:37 53.87985 -11.09222 37421 ft 447 kts 92°
2026-04-27 19:37 53.87421 -10.98782 37418 ft 447 kts 92°
2026-04-27 19:38 53.86850 -10.88368 37419 ft 446 kts 92°
2026-04-27 19:38 53.86270 -10.77971 37408 ft 446 kts 92°
2026-04-27 19:39 53.85681 -10.67574 37402 ft 445 kts 91°
2026-04-27 19:39 53.85083 -10.57171 37399 ft 445 kts 91°
2026-04-27 19:40 53.84472 -10.46716 37401 ft 446 kts 91°
2026-04-27 19:40 53.83859 -10.36383 37399 ft 446 kts 91°
2026-04-27 19:41 53.83229 -10.25919 37403 ft 446 kts 92°
2026-04-27 19:41 53.82597 -10.15573 37400 ft 446 kts 92°
2026-04-27 19:42 53.81952 -10.05154 37397 ft 446 kts 92°
2026-04-27 19:42 53.81297 -9.94743 37397 ft 446 kts 92°
2026-04-27 19:43 53.80638 -9.84407 37397 ft 446 kts 92°
2026-04-27 19:43 53.79965 -9.73997 37392 ft 446 kts 91°
2026-04-27 19:44 53.79283 -9.63604 37391 ft 445 kts 91°
2026-04-27 19:44 53.78599 -9.53307 37390 ft 445 kts 91°
2026-04-27 19:45 53.77900 -9.42915 37390 ft 445 kts 91°
2026-04-27 19:45 53.77196 -9.32596 37394 ft 445 kts 92°
2026-04-27 19:46 53.76483 -9.22276 37397 ft 445 kts 92°
2026-04-27 19:46 53.75756 -9.11899 37396 ft 446 kts 91°
2026-04-27 19:47 53.75026 -9.01596 37393 ft 445 kts 91°
2026-04-27 19:47 53.74281 -8.91220 37392 ft 444 kts 91°
2026-04-27 19:48 53.73534 -8.80935 37388 ft 444 kts 91°
2026-04-27 19:48 53.72779 -8.70672 37386 ft 444 kts 91°
2026-04-27 19:49 53.72007 -8.60310 37386 ft 445 kts 91°
2026-04-27 19:49 53.71231 -8.50002 37383 ft 445 kts 91°
2026-04-27 19:50 53.70446 -8.39706 37377 ft 444 kts 91°
2026-04-27 19:50 53.69655 -8.29447 37379 ft 444 kts 91°
2026-04-27 19:51 53.68851 -8.19141 37388 ft 444 kts 91°
2026-04-27 19:51 53.68037 -8.08822 37385 ft 445 kts 91°
2026-04-27 19:52 53.67216 -7.98529 37386 ft 445 kts 91°
2026-04-27 19:52 53.66389 -7.88283 37378 ft 445 kts 91°
2026-04-27 19:53 53.65126 -7.72846 37369 ft 446 kts 91°
2026-04-27 19:53 53.64272 -7.62547 37365 ft 446 kts 91°
2026-04-27 19:54 53.63409 -7.52253 37369 ft 446 kts 90°
2026-04-27 19:54 53.62535 -7.41937 37367 ft 445 kts 90°
2026-04-27 19:55 53.61659 -7.31703 37365 ft 446 kts 91°
2026-04-27 19:55 53.60769 -7.21410 37366 ft 446 kts 91°
2026-04-27 19:56 53.59869 -7.11108 37364 ft 446 kts 91°
2026-04-27 19:56 53.58960 -7.00824 37363 ft 446 kts 91°
2026-04-27 19:57 53.58047 -6.90583 37365 ft 446 kts 90°
2026-04-27 19:57 53.57121 -6.80303 37367 ft 446 kts 91°
2026-04-27 19:58 53.56190 -6.70070 37367 ft 446 kts 90°
2026-04-27 19:58 53.55246 -6.59798 37372 ft 446 kts 90°
2026-04-27 19:59 53.54292 -6.49515 37376 ft 447 kts 91°
2026-04-27 19:59 53.53326 -6.39215 37367 ft 447 kts 90°
2026-04-27 20:00 53.52351 -6.28896 37374 ft 448 kts 91°
2026-04-27 20:00 53.51370 -6.18625 37370 ft 450 kts 91°
2026-04-27 20:01 53.50375 -6.08302 37365 ft 450 kts 91°
2026-04-27 20:01 53.49365 -5.97932 37361 ft 450 kts 91°
2026-04-27 20:02 53.48354 -5.87632 37361 ft 451 kts 91°
2026-04-27 20:02 53.47327 -5.77273 37358 ft 452 kts 91°
2026-04-27 20:03 53.46287 -5.66888 37355 ft 453 kts 91°
2026-04-27 20:03 53.45245 -5.56568 37351 ft 452 kts 91°
2026-04-27 20:04 53.44452 -5.46234 37357 ft 444 kts 84°
2026-04-27 20:04 53.44213 -5.35913 37348 ft 444 kts 84°
2026-04-27 20:05 53.43958 -5.25608 37358 ft 446 kts 84°
2026-04-27 20:05 53.43689 -5.15293 37329 ft 447 kts 85°
2026-04-27 20:06 53.43369 -5.04916 37345 ft 447 kts 85°
2026-04-27 20:06 53.43039 -4.94550 37341 ft 448 kts 85°
2026-04-27 20:07 53.42699 -4.84155 37347 ft 449 kts 85°
2026-04-27 20:07 53.42351 -4.73733 37353 ft 449 kts 85°
2026-04-27 20:08 53.41995 -4.63325 37342 ft 450 kts 85°